Ord, NE

3:24 PM CST on February 08, 2016 (GMT -0600)
Sharp

Weather History for KODX - April, 2013

Change the Weather History Date:

Wednesday, April 24, 2013

  Actual Average Record
Temperature  
Mean Temperature 39 °F 52 °F  
Max Temperature 57 °F 64 °F 90 °F (2012)
Min Temperature 21 °F 39 °F 21 °F (2013)
Degree Days  
Heating Degree Days 26 14  
Month to date heating degree days 619 414  
Since 1 July heating degree days 6560 6277  
Cooling Degree Days 0 0  
Month to date cooling degree days 0 0  
Year to date cooling degree days 0 0  
Moisture  
Dew Point 24 °F    
Average Humidity 59    
Maximum Humidity 88    
Minimum Humidity 30    
Precipitation  
Precipitation T in 0.10 in 2.88 in (1929)
Month to date precipitation 2.51 1.95  
Year to date precipitation 4.74 4.21  
Sea Level Pressure  
Sea Level Pressure 30.18 in    
Wind  
Wind Speed 10 mph (West)    
Max Wind Speed 28 mph    
Max Gust Speed 36 mph    
Visibility 10 miles    
Events Rain    
T = Trace of Precipitation, MM = Missing Value Source: NWS Daily Summary

Daily Weather History Graph

Daily Weather History Graph

Search for Another Location

Airport or City:

Trip Planner

Search our weather history database for the weather conditions in past years. The results will help you decide how hot, cold, wet, or windy it might be!

Date:

Astronomy

Apr. 24, 2013 Rise Set
Actual Time 6:41 AM CDT 8:26 PM CDT
Civil Twilight 6:12 AM CDT 8:56 PM CDT
Nautical Twilight 5:36 AM CDT 9:32 PM CDT
Astronomical Twilight 4:58 AM CDT 10:10 PM CDT
Moon 7:31 PM CDT (4/24) 5:47 AM CDT (4/24)
Length of Visible Light 14h 43m
Length of Day
13h 44m
Waxing Gibbous, 98% of the Moon is Illuminated
Apr 24
Waxing Gibbous
Apr 25
Full
May 2
Last Quarter
May 9
New
May 17
First Quarter

Hourly Weather History & Observations

Time (CDT) Temp. Windchill Dew Point Humidity Pressure Visibility Wind Dir Wind Speed Gust Speed Precip Events Conditions
12:53 AM 23.0 °F 15.8 °F 19.9 °F 88% 30.27 in 10.0 mi SSW 5.8 mph - N/A   Clear
1:53 AM 21.9 °F 15.7 °F 18.0 °F 85% 30.26 in 10.0 mi SW 4.6 mph - N/A   Clear
2:53 AM 21.9 °F 14.5 °F 18.0 °F 85% 30.24 in 10.0 mi SSW 5.8 mph - N/A   Clear
3:53 AM 21.9 °F - 18.0 °F 85% 30.22 in 10.0 mi Calm Calm - N/A   Clear
4:53 AM 21.2 °F 12.6 °F 17.6 °F 86% 30.14 in 10.0 mi SSW 6.9 mph - N/A   Clear
5:53 AM 23.0 °F - 18.0 °F 81% 30.21 in 10.0 mi Calm Calm - N/A   Clear
6:53 AM 25.0 °F - 18.0 °F 75% 30.19 in 10.0 mi Calm Calm - N/A   Clear
7:53 AM 27.0 °F - 21.0 °F 78% 30.18 in 10.0 mi Calm Calm - N/A   Clear
8:53 AM 32.0 °F 27.5 °F 24.1 °F 73% 30.17 in 10.0 mi SSW 4.6 mph - N/A   Clear
9:53 AM 39.0 °F 32.3 °F 26.1 °F 60% 30.16 in 10.0 mi SW 10.4 mph - N/A   Clear
10:53 AM 44.1 °F 37.7 °F 27.0 °F 51% 30.15 in 10.0 mi WSW 12.7 mph - N/A   Clear
11:53 AM 48.0 °F - 24.1 °F 39% 30.14 in 10.0 mi West 16.1 mph 20.7 mph N/A   Clear
12:53 PM 52.0 °F - 26.1 °F 37% 30.12 in 10.0 mi West 13.8 mph - N/A   Clear
1:53 PM 55.0 °F - 26.1 °F 33% 30.09 in 10.0 mi West 18.4 mph 26.5 mph N/A   Mostly Cloudy
2:53 PM 57.0 °F - 26.1 °F 30% 30.10 in 10.0 mi WNW 21.9 mph 35.7 mph N/A   Mostly Cloudy
3:53 PM 54.0 °F - 28.0 °F 37% 30.10 in 10.0 mi NNW 18.4 mph 27.6 mph N/A   Mostly Cloudy
4:53 PM 45.0 °F 36.4 °F 35.1 °F 68% 30.17 in 7.0 mi NW 23.0 mph 34.5 mph 0.00 in Rain Light Rain
5:53 PM 48.9 °F - 28.9 °F 46% 30.16 in 10.0 mi NW 24.2 mph 34.5 mph 0.00 in   Clear
6:53 PM 48.0 °F - 27.0 °F 44% 30.17 in 10.0 mi NW 19.6 mph - N/A   Partly Cloudy
7:53 PM 45.0 °F 38.5 °F 28.9 °F 53% 30.19 in 10.0 mi NW 13.8 mph - N/A   Clear
8:53 PM 39.9 °F 34.5 °F 28.9 °F 65% 30.20 in 10.0 mi WNW 8.1 mph - N/A   Clear
9:53 PM 36.0 °F 29.6 °F 28.0 °F 73% 30.23 in 10.0 mi West 8.1 mph - N/A   Clear
10:53 PM 32.0 °F 27.5 °F 27.0 °F 82% 30.25 in 10.0 mi SSW 4.6 mph - N/A   Clear
11:53 PM 30.9 °F 26.2 °F 27.0 °F 85% 30.24 in 10.0 mi South 4.6 mph - N/A   Clear